TimeCDT,TemperatureF,Dew PointF,Humidity,Sea Level PressureIn,VisibilityMPH,Wind Direction,Wind SpeedMPH,Gust SpeedMPH,PrecipitationIn,Events,Conditions,WindDirDegrees,DateUTC
12:53 AM,70.0,62.1,76,29.95,10.0,Calm,Calm,-,N/A,,Clear,0,2011-10-17 05:53:00
1:53 AM,70.0,64.0,81,29.95,10.0,South,3.5,-,N/A,,Clear,170,2011-10-17 06:53:00
2:53 AM,69.1,63.0,81,29.94,10.0,Calm,Calm,-,N/A,,Clear,0,2011-10-17 07:53:00
3:53 AM,66.9,63.0,87,29.92,10.0,Calm,Calm,-,N/A,,Scattered Clouds,0,2011-10-17 08:53:00
4:04 AM,66.2,62.6,88,29.95,10.0,Calm,Calm,-,N/A,,Mostly Cloudy,0,2011-10-17 09:04:00
5:12 AM,66.2,62.6,88,29.95,10.0,Calm,Calm,-,N/A,,Scattered Clouds,0,2011-10-17 10:12:00
5:53 AM,66.0,62.1,87,29.93,10.0,Calm,Calm,-,N/A,,Clear,0,2011-10-17 10:53:00
6:53 AM,64.9,62.1,90,29.92,7.0,Calm,Calm,-,N/A,,Clear,0,2011-10-17 11:53:00
7:15 AM,66.2,62.6,88,29.95,10.0,Calm,Calm,-,N/A,,Partly Cloudy,0,2011-10-17 12:15:00
7:30 AM,64.4,62.6,94,29.95,5.0,Calm,Calm,-,N/A,,Partly Cloudy,0,2011-10-17 12:30:00
7:44 AM,64.4,62.6,94,29.95,5.0,Calm,Calm,-,N/A,,Mostly Cloudy,0,2011-10-17 12:44:00
7:53 AM,66.0,62.1,87,29.92,5.0,Calm,Calm,-,N/A,,Mostly Cloudy,0,2011-10-17 12:53:00
8:06 AM,66.2,62.6,88,29.94,0.5,Calm,Calm,-,N/A,Fog,Fog,0,2011-10-17 13:06:00
8:32 AM,66.2,64.4,94,29.94,0.2,Calm,Calm,-,N/A,Fog,Fog,0,2011-10-17 13:32:00
8:53 AM,68.0,66.0,93,29.92,0.2,Calm,Calm,-,N/A,Fog,Fog,0,2011-10-17 13:53:00
9:44 AM,69.8,66.2,88,29.95,2.0,Calm,Calm,-,N/A,,Overcast,0,2011-10-17 14:44:00
9:53 AM,69.1,66.9,93,29.93,5.0,Calm,Calm,-,N/A,,Overcast,0,2011-10-17 14:53:00
10:09 AM,69.8,66.2,88,29.95,10.0,Calm,Calm,-,N/A,,Overcast,0,2011-10-17 15:09:00
10:24 AM,71.6,66.2,83,29.95,10.0,Calm,Calm,-,N/A,,Overcast,0,2011-10-17 15:24:00
10:53 AM,77.0,66.9,71,29.91,10.0,South,8.1,-,N/A,,Overcast,190,2011-10-17 15:53:00
11:53 AM,82.9,62.1,49,29.88,10.0,South,11.5,-,N/A,,Partly Cloudy,190,2011-10-17 16:53:00
12:53 PM,84.9,64.0,49,29.85,10.0,South,11.5,-,N/A,,Clear,180,2011-10-17 17:53:00
1:53 PM,88.0,64.0,45,29.80,10.0,South,12.7,18.4,N/A,,Mostly Cloudy,180,2011-10-17 18:53:00
2:53 PM,89.1,63.0,42,29.75,10.0,South,9.2,-,N/A,,Partly Cloudy,190,2011-10-17 19:53:00
3:53 PM,91.0,62.1,38,29.72,10.0,South,12.7,-,N/A,,Clear,170,2011-10-17 20:53:00
4:53 PM,91.0,61.0,36,29.71,10.0,South,10.4,-,N/A,,Clear,170,2011-10-17 21:53:00
5:53 PM,90.0,60.1,37,29.70,10.0,SSE,10.4,-,N/A,,Clear,160,2011-10-17 22:53:00
7:53 PM,82.0,61.0,49,29.70,10.0,Calm,Calm,-,N/A,,Clear,0,2011-10-18 00:53:00
8:53 PM,79.0,61.0,54,29.70,10.0,SSE,4.6,-,N/A,,Clear,150,2011-10-18 01:53:00
9:53 PM,79.0,60.1,52,29.71,10.0,SSE,9.2,-,N/A,,Clear,160,2011-10-18 02:53:00
10:53 PM,77.0,61.0,58,29.70,10.0,SSE,9.2,-,N/A,,Clear,160,2011-10-18 03:53:00
11:53 PM,75.0,62.1,64,29.70,10.0,South,5.8,-,N/A,,Clear,170,2011-10-18 04:53:00